[[{"header":{"parameterUnit":"m.s-1","parameterCategory":1,"la1":30.2991,"la2":30.254,"lo1":-89.0895,"lo2":-89.0444,"dy":0.0017,"dx":0.0017,"nx":28,"ny":28,"refTime":"2023-08-12T03:00:00:Z","depth":0,"parameterNumber":2,"parameterNumberName":"U-component_of_WINDS"},"data":[0,0,0,0,0,0,0,0,0,0,0,0,0,0,0,0,0,0,0,0,0,0,0,0,0,0,0,0,0,0,0,0,0,0,0,0,0,0,0,0,0,0,0,0,0,0,0,0,0,0,0,0,0,0,0,0,0,0,3.194,3.1941,0,3.2016,3.2017,3.2017,3.2034,3.2034,3.2033,3.2033,3.2111,3.2113,3.2116,0,0,0,0,0,0,0,0,0,0,0,0,0,3.1813,3.1815,3.194,3.1941,3.1942,3.2016,3.2017,3.2018,3.2034,3.2034,3.2033,3.2032,3.211,3.2113,3.2116,0,0,0,0,0,0,0,0,0,0,0,0,0,3.1877,3.1816,3.194,3.1959,3.1962,3.2015,3.2017,3.2018,3.2034,3.2034,3.2033,3.2032,3.2109,3.2113,3.2117,3.2157,0,0,3.2128,3.213,0,0,0,0,0,0,0,0,3.1873,3.1881,3.1955,3.1958,3.1961,3.2015,3.2001,3.2065,3.2035,3.2007,3.2033,3.2032,3.208,3.2086,3.2102,3.216,3.2164,3.2129,3.2131,3.2133,3.2134,0,0,0,0,0,0,0,3.1869,3.1878,3.197,3.1957,3.196,3.1965,3.1973,3.2013,3.2047,3.2009,3.2011,3.2019,3.2081,3.2098,3.2104,3.2165,3.2129,3.2132,3.2134,3.2136,3.2263,3.2264,0,0,0,0,0,0,3.1861,3.1874,3.1968,3.1972,3.1914,3.1968,3.1977,3.1998,3.2046,3.2053,3.202,3.202,3.2092,3.2099,3.2107,3.2158,3.2133,3.2136,3.2139,3.2262,3.2264,3.2265,0,0,0,0,0,0,3.1858,3.1869,3.1965,3.1924,3.1936,3.1971,3.1995,3.2,3.2017,3.2055,3.2061,3.2031,3.2091,3.2101,3.2145,3.2161,3.2138,3.2142,3.2261,3.2263,3.2264,3.2261,0,0,0,0,0,0,3.1854,3.1868,3.1882,3.1924,3.1939,3.2001,3.1996,3.2002,3.2024,3.2024,3.2067,3.2073,3.2092,3.2139,3.2149,3.2166,3.2145,3.226,3.2262,3.2264,3.226,3.2262,3.2264,0,0,0,0,0,3.1849,3.1878,3.1883,3.1894,3.1958,3.2001,3.201,3.2031,3.2025,3.2041,3.2065,3.2071,3.2158,3.2143,3.2154,3.2173,3.2259,3.2261,3.2263,3.2259,3.2262,3.2264,0,0,0,0,0,0,3.1837,3.1884,3.189,3.1933,3.1963,3.2004,3.2024,3.2033,3.2066,3.2065,3.209,3.2099,3.2141,3.2162,3.2144,3.2216,3.2208,3.2213,3.2201,3.2204,3.2206,3.22,3.2148,0,0,0,0,0,3.1839,3.187,3.191,3.1944,3.1959,3.1989,3.2009,3.2023,3.2055,3.2068,3.2096,3.2128,3.2162,3.2184,3.2218,3.2263,3.2274,3.2282,3.2284,3.2286,3.229,3.2317,3.2322,3.2272,3.2272,3.2272,0,0,3.1844,3.1874,3.1892,3.1942,3.1968,3.2,3.2,3.2034,3.2059,3.2074,3.2116,3.2138,3.2176,3.2221,3.2242,3.2239,3.2306,3.2289,3.229,3.2293,3.232,3.2325,3.2329,3.2274,3.2274,3.2274,0,0,3.187,3.1895,3.1927,3.1953,3.1991,3.2011,3.2019,3.206,3.2075,3.2119,3.2131,3.2162,3.222,3.2247,3.2268,3.2307,3.2315,3.2318,3.233,3.2356,3.236,3.2364,3.2379,3.2384,3.2321,3.2321,3.2321,0,3.1871,3.192,3.1942,3.1977,3.1999,3.2015,3.2048,3.2072,3.212,3.2136,3.2132,3.2208,3.2234,3.2286,3.2296,3.2312,3.2323,3.2313,3.2358,3.2361,3.2365,3.238,3.2385,3.2322,3.2322,3.2322,3.2322,0,3.1921,3.1955,3.1976,3.2022,3.2048,3.2081,3.211,3.2133,3.2145,3.2166,3.2212,3.2244,3.2286,3.2299,3.2311,3.2354,3.2352,3.2352,3.2345,3.237,3.2384,3.2389,3.2322,3.2322,3.2322,3.2322,0,0,3.1939,3.1999,3.2006,3.2028,3.2073,3.21,3.2136,3.2176,3.2196,3.223,3.2261,3.2311,3.2313,3.2337,3.2353,3.2376,3.2407,3.2374,3.2376,3.238,3.2458,3.2457,3.2463,3.2412,3.2414,3.2414,3.2455,0,3.1971,3.2034,3.2056,3.2108,3.2141,3.2158,3.2189,3.2221,3.2242,3.2274,3.2298,3.2334,3.2333,3.2348,3.2372,3.2398,3.2423,3.2395,3.2443,3.2444,3.2432,3.247,3.2469,3.2506,3.2461,3.2462,3.2462,0,3.2016,3.205,3.2106,3.2148,3.2163,3.219,3.2231,3.2261,3.2298,3.2312,3.234,3.2355,3.2394,3.2385,3.244,3.2421,3.2442,3.2458,3.2461,3.2465,3.2454,3.2477,3.2518,3.2523,3.2471,3.247,3.247,0,3.2025,3.2085,3.2126,3.2145,3.2195,3.2214,3.2236,3.2273,3.2297,3.2332,3.2349,3.2388,3.241,3.2442,3.2467,3.2458,3.2521,3.2513,3.2534,3.2534,3.2546,3.2545,3.2591,3.256,3.256,3.2559,3.2559,0,3.2058,3.2091,3.2131,3.2157,3.2196,3.2222,3.226,3.2283,3.2316,3.2347,3.2364,3.2394,3.2426,3.246,3.248,3.2524,3.2533,3.2547,3.2552,3.2545,3.2544,3.2559,3.2557,3.2561,3.2561,3.256,3.256,0,3.2074,3.2102,3.2148,3.2193,3.2205,3.2232,3.2271,3.2297,3.232,3.236,3.2371,3.2407,3.2448,3.2477,3.253,3.2544,3.2591,3.2596,3.2578,3.2581,3.2601,3.2599,3.2659,3.2668,3.263,3.263,3.263,0,3.2093,3.212,3.2168,3.219,3.2212,3.2248,3.2272,3.23,3.2325,3.2371,3.2392,3.2434,3.247,3.2535,3.2567,3.2608,3.2614,3.2632,3.262,3.2613,3.2615,3.2613,3.2617,3.2634,3.2634,3.2634,3.2634,0,3.2125,3.2138,3.2173,3.2213,3.2242,3.2276,3.2309,3.2326,3.236,3.2388,3.243,3.2458,3.2513,3.2555,3.2599,3.2624,3.2635,3.2638,3.2645,3.2639,3.2628,3.2635,3.2584,3.2636,3.2636,3.2636,3.2636,3.2636,3.2144,3.2169,3.2207,3.2246,3.2274,3.2306,3.2333,3.236,3.2396,3.2442,3.2456,3.2501,3.254,3.2601,3.2626,3.2662,3.266,3.2671,3.2673,3.2675,3.2676,3.2622,3.267,3.267,3.267,3.267,3.267,0,3.2177,3.2203,3.2239,3.2285,3.2316,3.2325,3.2363,3.2388,3.2427,3.2462,3.2497,3.2547,3.2589,3.2624,3.2668,3.269,3.2697,3.2701,3.2699,3.2705,3.2674,3.2663,3.2695,3.2695,3.2695,3.2695,3.2695,3.2695,3.2198,3.2241,3.2259,3.2318,3.2344,3.2387,3.2408,3.2438,3.2466,3.2521,3.2556,3.2579,3.2615,3.2662,3.2701,3.2711,3.2726,3.2729,3.274,3.271,3.2707,3.2704,3.2695,3.2732,3.2732,3.2768,3.2769,3.2769]},{"header":{"parameterUnit":"m.s-1","parameterCategory":1,"la1":30.2991,"la2":30.254,"lo1":-89.0895,"lo2":-89.0444,"dy":0.0017,"dx":0.0017,"nx":28,"ny":28,"refTime":"2023-08-12T03:00:00:Z","depth":0,"parameterNumber":3,"parameterNumberName":"V-component_of_WINDS"},"data":[0,0,0,0,0,0,0,0,0,0,0,0,0,0,0,0,0,0,0,0,0,0,0,0,0,0,0,0,0,0,0,0,0,0,0,0,0,0,0,0,0,0,0,0,0,0,0,0,0,0,0,0,0,0,0,0,0,0,-1.4206,-1.4206,0,-1.4245,-1.4246,-1.4246,-1.4243,-1.4243,-1.4242,-1.4242,-1.4282,-1.4284,-1.4286,0,0,0,0,0,0,0,0,0,0,0,0,0,-1.413,-1.4131,-1.4206,-1.4206,-1.4207,-1.4245,-1.4246,-1.4246,-1.4243,-1.4243,-1.4242,-1.4241,-1.4282,-1.4284,-1.4286,0,0,0,0,0,0,0,0,0,0,0,0,0,-1.4166,-1.4132,-1.4206,-1.421,-1.4211,-1.4245,-1.4246,-1.4246,-1.4244,-1.4243,-1.4242,-1.4241,-1.4281,-1.4284,-1.4286,-1.4319,0,0,-1.4294,-1.4295,0,0,0,0,0,0,0,0,-1.4164,-1.4168,-1.4209,-1.421,-1.4211,-1.4238,-1.4234,-1.4271,-1.4244,-1.4231,-1.4242,-1.424,-1.4269,-1.4272,-1.4281,-1.4321,-1.4323,-1.4294,-1.4295,-1.4296,-1.4297,0,0,0,0,0,0,0,-1.4161,-1.4167,-1.4221,-1.4209,-1.4211,-1.4211,-1.4215,-1.4241,-1.4254,-1.4232,-1.4232,-1.4237,-1.4269,-1.4279,-1.4282,-1.4323,-1.4294,-1.4296,-1.4297,-1.4298,-1.4394,-1.4395,0,0,0,0,0,0,-1.4157,-1.4165,-1.422,-1.4223,-1.4184,-1.4213,-1.4217,-1.423,-1.4254,-1.4257,-1.4237,-1.4236,-1.4275,-1.4279,-1.4284,-1.4325,-1.4296,-1.4299,-1.43,-1.4393,-1.4394,-1.4395,0,0,0,0,0,0,-1.4156,-1.4162,-1.4219,-1.4194,-1.4201,-1.4215,-1.423,-1.4232,-1.4242,-1.4258,-1.426,-1.4245,-1.4275,-1.428,-1.4311,-1.4326,-1.43,-1.4302,-1.4392,-1.4393,-1.4395,-1.4407,0,0,0,0,0,0,-1.4154,-1.4162,-1.4174,-1.4194,-1.4202,-1.4244,-1.4231,-1.4233,-1.4246,-1.4245,-1.4266,-1.4269,-1.4274,-1.4307,-1.4313,-1.4329,-1.4304,-1.439,-1.4392,-1.4394,-1.4405,-1.4409,-1.4412,0,0,0,0,0,-1.4151,-1.4175,-1.4174,-1.4181,-1.4217,-1.4245,-1.425,-1.4256,-1.4247,-1.426,-1.4271,-1.4268,-1.4324,-1.431,-1.4317,-1.4334,-1.4389,-1.4392,-1.4394,-1.4404,-1.4408,-1.4412,0,0,0,0,0,0,-1.4156,-1.4178,-1.4177,-1.4209,-1.4225,-1.4244,-1.426,-1.426,-1.4279,-1.4278,-1.4285,-1.429,-1.432,-1.433,-1.4315,-1.4368,-1.4355,-1.4359,-1.436,-1.4365,-1.4368,-1.4365,-1.4306,0,0,0,0,0,-1.4161,-1.4182,-1.42,-1.4226,-1.4234,-1.4246,-1.4258,-1.4262,-1.4279,-1.4286,-1.4299,-1.4316,-1.4338,-1.4352,-1.4372,-1.4407,-1.4412,-1.4422,-1.4425,-1.4428,-1.4431,-1.4452,-1.4457,-1.4403,-1.4403,-1.4403,0,0,-1.4171,-1.4186,-1.4198,-1.4227,-1.424,-1.4262,-1.4252,-1.4275,-1.4291,-1.4289,-1.4319,-1.433,-1.435,-1.4382,-1.4398,-1.4392,-1.4448,-1.4431,-1.4433,-1.4435,-1.4455,-1.446,-1.4465,-1.4405,-1.4404,-1.4404,0,0,-1.4201,-1.4214,-1.4238,-1.4251,-1.4272,-1.428,-1.4286,-1.4306,-1.4313,-1.4343,-1.4342,-1.4363,-1.4399,-1.4414,-1.4426,-1.4464,-1.4463,-1.4471,-1.4488,-1.4508,-1.4512,-1.4516,-1.4531,-1.4536,-1.4474,-1.4474,-1.4474,0,-1.4211,-1.4243,-1.425,-1.4274,-1.4287,-1.4287,-1.4312,-1.4325,-1.4351,-1.4361,-1.4354,-1.4402,-1.4415,-1.4452,-1.4462,-1.4471,-1.4479,-1.4468,-1.4511,-1.4515,-1.4519,-1.4533,-1.4538,-1.4475,-1.4475,-1.4475,-1.4475,0,-1.4256,-1.4278,-1.4295,-1.4321,-1.4336,-1.436,-1.4372,-1.4387,-1.4389,-1.4399,-1.443,-1.4447,-1.4471,-1.4481,-1.4483,-1.4519,-1.4515,-1.4509,-1.4497,-1.4525,-1.4538,-1.4543,-1.4476,-1.4476,-1.4476,-1.4475,0,0,-1.4288,-1.4319,-1.4325,-1.4338,-1.4361,-1.4379,-1.4404,-1.4428,-1.4442,-1.446,-1.4482,-1.4514,-1.451,-1.4524,-1.4529,-1.4546,-1.4577,-1.4539,-1.454,-1.4546,-1.4619,-1.4623,-1.4629,-1.4577,-1.4578,-1.4578,-1.4618,0,-1.4321,-1.4365,-1.4373,-1.4411,-1.4433,-1.4435,-1.4457,-1.4474,-1.4484,-1.4505,-1.4516,-1.4539,-1.4531,-1.454,-1.4557,-1.457,-1.4592,-1.4567,-1.4598,-1.4599,-1.4593,-1.4636,-1.464,-1.4676,-1.4623,-1.4624,-1.4624,0,-1.4365,-1.4385,-1.4426,-1.4449,-1.4458,-1.4477,-1.4502,-1.4521,-1.4541,-1.4548,-1.4564,-1.4567,-1.4595,-1.4581,-1.462,-1.4602,-1.4616,-1.4624,-1.4626,-1.4629,-1.4613,-1.4641,-1.4688,-1.4693,-1.4633,-1.4632,-1.4631,0,-1.4386,-1.4424,-1.4453,-1.4464,-1.449,-1.4504,-1.4516,-1.4536,-1.4551,-1.4572,-1.4582,-1.4606,-1.462,-1.4639,-1.4649,-1.4638,-1.4687,-1.4674,-1.4694,-1.4694,-1.4704,-1.4703,-1.4754,-1.4712,-1.4712,-1.4712,-1.4712,0,-1.4422,-1.4447,-1.4463,-1.4482,-1.4511,-1.452,-1.4549,-1.456,-1.4578,-1.46,-1.4603,-1.4623,-1.4635,-1.4657,-1.4665,-1.4697,-1.4703,-1.4709,-1.4711,-1.4709,-1.4708,-1.4718,-1.4716,-1.4713,-1.4713,-1.4713,-1.4712,0,-1.445,-1.4462,-1.4495,-1.4518,-1.4524,-1.4544,-1.4565,-1.4583,-1.4594,-1.4621,-1.4628,-1.4645,-1.4671,-1.4683,-1.4716,-1.4722,-1.4758,-1.4758,-1.4751,-1.4752,-1.4771,-1.4769,-1.483,-1.4839,-1.4791,-1.4791,-1.4791,0,-1.4472,-1.4491,-1.4517,-1.4532,-1.4544,-1.4567,-1.4583,-1.4593,-1.461,-1.4636,-1.4652,-1.4679,-1.47,-1.4743,-1.4759,-1.4784,-1.4785,-1.4805,-1.4789,-1.4787,-1.4787,-1.4786,-1.4788,-1.4808,-1.4808,-1.4809,-1.4809,0,-1.451,-1.4516,-1.4538,-1.4563,-1.4581,-1.4601,-1.4621,-1.4633,-1.4647,-1.4666,-1.4693,-1.471,-1.4745,-1.4772,-1.4799,-1.4812,-1.4813,-1.4814,-1.482,-1.4818,-1.4814,-1.4817,-1.4759,-1.4812,-1.4812,-1.4812,-1.4812,-1.4811,-1.4536,-1.4555,-1.4576,-1.4601,-1.4617,-1.4636,-1.4655,-1.4669,-1.4692,-1.4721,-1.4726,-1.4755,-1.4777,-1.4814,-1.4828,-1.4852,-1.4848,-1.4856,-1.4858,-1.486,-1.4862,-1.481,-1.4857,-1.4857,-1.4857,-1.4857,-1.4857,0,-1.4576,-1.459,-1.4613,-1.4641,-1.4661,-1.4661,-1.4684,-1.4701,-1.4727,-1.4747,-1.4769,-1.4802,-1.4829,-1.4847,-1.4875,-1.489,-1.4892,-1.4897,-1.4896,-1.49,-1.4864,-1.4856,-1.4896,-1.4896,-1.4896,-1.4896,-1.4896,-1.4896,-1.4598,-1.463,-1.4638,-1.4678,-1.4692,-1.4721,-1.4735,-1.4753,-1.4769,-1.4805,-1.4828,-1.484,-1.486,-1.4889,-1.4914,-1.4919,-1.4929,-1.4935,-1.494,-1.4906,-1.4902,-1.4898,-1.4891,-1.4937,-1.4937,-1.4974,-1.4974,-1.4974]}]]